Regional Weather Roundup
Issued by NWS

Home | Current Version | Previous Version | Text Only | Print | Product List | Glossary Off
Versions: 1 2 3 4 5 6 7 8 9 10 11 12 13 14 15 16 17 18 19 20 21 22 23 24 25 26 27 28 29 30 31 32 33 34 35 36 37 38 39 40 41 42 43 44 45 46 47 48 49 50

000
ASUS43 KOAX 011610
RWRNE

WEATHER ROUNDUP FOR NEBRASKA
NATIONAL WEATHER SERVICE OMAHA NE
1100 AM CDT WED APR 01 2015

NOTES: SATELLITE DATA IS BEING USED TO AUGMENT CLOUD COVER ABOVE
       12000 FEET.
       "FAIR" INDICATES FEW OR NO CLOUDS BELOW 12,000 FEET WITH NO
       SIGNIFICANT WEATHER AND/OR OBSTRUCTIONS TO VISIBILITY.

  * THESE STATIONS DO NOT REPORT WEATHER SUCH AS RAIN...SNOW OR FOG.

NEZ001>004-019>022-054>056-011700-
NEBRASKA PANHANDLE

CITY           SKY/WX    TMP DP  RH WIND       PRES   REMARKS
SCOTTSBLUFF    CLOUDY    63  29  27 W12       29.71R
ALLIANCE       CLOUDY    61  28  28 NW15      29.69R
CHADRON        CLOUDY    58  35  42 W6        29.69R
KIMBALL        CLOUDY    64  28  26 NW24      29.74R
SIDNEY         CLOUDY    65  29  25 NW22G28   29.71R
$$

NEZ057>060-069>072-079>082-011700-
SOUTHWEST NEBRASKA

CITY           SKY/WX    TMP DP  RH WIND       PRES   REMARKS
NORTH PLATTE   MOSUNNY   66  43  43 SW17      29.65R
IMPERIAL         N/A     65  36  34 W5        29.68R
LEXINGTON      SUNNY     69  46  42 S29G38    29.65F
MCCOOK         SUNNY     70  44  39 SW22      29.67F
OGALLALA       CLOUDY    63  34  33 W8        29.66S
$$

NEZ005>010-023>029-035>040-094-011700-
NORTH CENTRAL NEBRASKA

CITY           SKY/WX    TMP DP  RH WIND       PRES   REMARKS
VALENTINE      CLOUDY    68  29  23 NW16G24   29.60R
AINSWORTH      CLOUDY    67  43  42 SW15G21   29.59R
BROKEN BOW     MOSUNNY   71  44  37 S26G41    29.63R
O`NEILL        MOSUNNY   71  42  34 SW25G37   29.58S
ORD            SUNNY     72  44  36 S23G36    29.61F
THEDFORD       CLOUDY    67  45  44 SW14      29.63R
$$

NEZ041-046>049-061>064-073>077-083>087-011700-
SOUTH CENTRAL NEBRASKA

CITY           SKY/WX    TMP DP  RH WIND       PRES   REMARKS
GRAND ISLAND   SUNNY     71  43  36 SW21G38   29.70F
AURORA         SUNNY     70  44  37 S24G32    29.70F
HASTINGS       SUNNY     70  44  39 S20G28    29.70F
HEBRON         SUNNY     70  43  38 S18       29.76S
HOLDREGE       SUNNY     71  42  35 SW25G33   29.70S
KEARNEY *      SUNNY     72  43  35 S32G40    29.68F
YORK           SUNNY     72  45  37 S23G32    29.72F
$$

NEZ011>018-030>034-042>045-011700-
NORTHEAST NEBRASKA

CITY           SKY/WX    TMP DP  RH WIND       PRES   REMARKS
NORFOLK        SUNNY     71  45  39 S25G38    29.67S
ALBION         SUNNY     70  42  35 S23G35    29.66F
BLAIR          SUNNY     72  37  27 S26G38    29.75F
COLUMBUS *     SUNNY     70  45  40 S22G28    29.72F
FREMONT        SUNNY     72  41  32 S22       29.74F
TEKAMAH        SUNNY     74  39  28 S29       29.74F
WAYNE          SUNNY     71  43  36 S30G40    29.66F
$$

NEZ050>053-065>068-078-088>093-011700-
SOUTHEAST NEBRASKA

CITY           SKY/WX    TMP DP  RH WIND       PRES   REMARKS
LINCOLN        SUNNY     73  47  39 S17       29.75S
OMAHA EPPLEY   MOSUNNY   71  36  27 S21G29    29.77S
BEATRICE       SUNNY     71  49  45 S15G24    29.77S
FALLS CITY     SUNNY     72  46  39 S21G29    29.81F
NEBRASKA CITY  SUNNY     72  37  28 S24G30    29.80F
PLATTSMOUTH    SUNNY     71  33  24 S20G30    29.77F
$$

NEZ044-045-051>053-067-011700-
OMAHA AREA

CITY           SKY/WX    TMP DP  RH WIND       PRES   REMARKS
OMAHA EPPLEY   MOSUNNY   71  36  27 S21G29    29.77S
BLAIR          SUNNY     72  37  27 S26G38    29.75F
FREMONT        SUNNY     72  41  32 S22       29.74F
MILLARD        SUNNY     71  41  33 SE16G24   29.76F
OFFUTT AFB     SUNNY     72  38  29 SE22      29.77F
PLATTSMOUTH    SUNNY     71  33  24 S20G30    29.77F
WAHOO          FAIR      73  41  32 S20G28    29.74F
$$



USA.gov is the U.S. government's official web portal to all federal, state and local government web resources and services.